[[{"header":{"parameterUnit":"m.s-1","parameterCategory":1,"la1":30.2991,"la2":30.254,"lo1":-89.0895,"lo2":-89.0444,"dy":0.0017,"dx":0.0017,"nx":28,"ny":28,"refTime":"2024-11-23T09:00:00:Z","depth":0,"parameterNumber":2,"parameterNumberName":"U-component_of_WINDS"},"data":[0,0,0,0,0,0,0,0,0,0,0,0,0,0,0,0,0,0,0,0,0,0,0,0,0,0,0,0,0,0,0,0,0,0,0,0,0,0,0,0,0,0,0,0,0,0,0,0,0,0,0,0,0,0,0,0,0,0,-0.7247,-0.7247,0,-0.7247,-0.7247,-0.7247,-0.7224,-0.7224,-0.7223,-0.7222,-0.7223,-0.7223,-0.7224,0,0,0,0,0,0,0,0,0,0,0,0,0,-0.723,-0.723,-0.7247,-0.7247,-0.7247,-0.7247,-0.7247,-0.7247,-0.7224,-0.7224,-0.7223,-0.7222,-0.7223,-0.7223,-0.7224,0,0,0,0,0,0,0,0,0,0,0,0,0,-0.7234,-0.723,-0.7247,-0.7236,-0.7235,-0.7247,-0.7247,-0.7247,-0.7224,-0.7224,-0.7223,-0.7222,-0.7222,-0.7223,-0.7224,-0.7247,0,0,-0.7227,-0.7227,0,0,0,0,0,0,0,0,-0.7234,-0.7235,-0.7237,-0.7237,-0.7235,-0.7235,-0.7241,-0.7247,-0.7225,-0.7228,-0.7222,-0.7221,-0.7227,-0.7228,-0.723,-0.7247,-0.7247,-0.7227,-0.7227,-0.7227,-0.7228,0,0,0,0,0,0,0,-0.7234,-0.7235,-0.7247,-0.7238,-0.7236,-0.7231,-0.7231,-0.7242,-0.7233,-0.7228,-0.7226,-0.7227,-0.7227,-0.7229,-0.723,-0.7247,-0.7227,-0.7227,-0.7228,-0.7228,-0.7284,-0.7285,0,0,0,0,0,0,-0.7235,-0.7235,-0.7247,-0.7247,-0.7232,-0.7232,-0.7232,-0.7236,-0.7233,-0.7231,-0.7227,-0.7226,-0.7228,-0.7229,-0.7229,-0.7257,-0.7227,-0.7228,-0.7229,-0.7283,-0.7284,-0.7285,0,0,0,0,0,0,-0.7234,-0.7236,-0.7247,-0.724,-0.7241,-0.7234,-0.7238,-0.7236,-0.7238,-0.7232,-0.7231,-0.7231,-0.7227,-0.7228,-0.7243,-0.7256,-0.7229,-0.7229,-0.7282,-0.7284,-0.7285,-0.7311,0,0,0,0,0,0,-0.7234,-0.7236,-0.7244,-0.7241,-0.7242,-0.726,-0.7239,-0.7237,-0.724,-0.7237,-0.7235,-0.7234,-0.7227,-0.7242,-0.7244,-0.7257,-0.723,-0.7281,-0.7283,-0.7284,-0.7309,-0.7313,-0.7317,0,0,0,0,0,-0.7233,-0.7251,-0.7245,-0.7246,-0.7252,-0.7261,-0.7262,-0.7252,-0.7241,-0.7249,-0.7246,-0.7234,-0.7255,-0.7244,-0.7246,-0.7259,-0.728,-0.7282,-0.7284,-0.7307,-0.7312,-0.7316,0,0,0,0,0,0,-0.7256,-0.7251,-0.7243,-0.726,-0.7261,-0.7257,-0.7267,-0.7258,-0.7262,-0.726,-0.7249,-0.7248,-0.7265,-0.7264,-0.7251,-0.7282,-0.7265,-0.7268,-0.7282,-0.7287,-0.7291,-0.729,-0.7231,0,0,0,0,0,-0.7264,-0.7271,-0.7266,-0.7282,-0.7282,-0.7275,-0.7279,-0.7272,-0.7272,-0.7272,-0.727,-0.7271,-0.7278,-0.7282,-0.7288,-0.7309,-0.7308,-0.7319,-0.7323,-0.7326,-0.7329,-0.734,-0.7345,-0.7293,-0.7293,-0.7293,0,0,-0.7278,-0.7276,-0.7281,-0.7286,-0.7286,-0.7295,-0.7275,-0.7285,-0.7291,-0.7274,-0.7287,-0.7286,-0.7286,-0.7304,-0.7312,-0.7304,-0.7343,-0.7329,-0.7332,-0.7332,-0.7343,-0.7348,-0.7353,-0.7294,-0.7294,-0.7294,0,0,-0.7309,-0.7308,-0.7321,-0.7322,-0.7322,-0.7317,-0.7321,-0.7318,-0.7316,-0.733,-0.7317,-0.7325,-0.7337,-0.7338,-0.734,-0.7374,-0.7363,-0.7376,-0.7396,-0.7408,-0.7412,-0.7415,-0.7427,-0.7432,-0.7378,-0.7378,-0.7378,0,-0.7327,-0.7339,-0.7329,-0.734,-0.7343,-0.7328,-0.7342,-0.7343,-0.7345,-0.7348,-0.7338,-0.7354,-0.7353,-0.7371,-0.738,-0.7382,-0.7386,-0.7375,-0.7412,-0.7415,-0.7419,-0.743,-0.7435,-0.738,-0.738,-0.738,-0.7379,0,-0.7362,-0.737,-0.7381,-0.7384,-0.7388,-0.74,-0.7393,-0.7399,-0.7392,-0.7388,-0.7403,-0.7402,-0.7408,-0.7412,-0.7405,-0.743,-0.7424,-0.7414,-0.7397,-0.7425,-0.7436,-0.744,-0.7382,-0.7382,-0.7381,-0.7381,0,0,-0.7405,-0.7404,-0.7408,-0.7409,-0.7409,-0.7416,-0.7428,-0.7434,-0.7439,-0.7442,-0.7452,-0.7463,-0.7453,-0.7456,-0.7449,-0.746,-0.7487,-0.7448,-0.7448,-0.7455,-0.7514,-0.7522,-0.7527,-0.748,-0.7481,-0.7482,-0.7514,0,-0.7435,-0.7455,-0.7448,-0.7469,-0.7477,-0.7464,-0.7475,-0.7476,-0.7474,-0.7481,-0.7478,-0.7486,-0.7473,-0.7474,-0.7484,-0.7481,-0.7498,-0.7479,-0.749,-0.749,-0.7489,-0.7532,-0.754,-0.7571,-0.7518,-0.7519,-0.7519,0,-0.7472,-0.7477,-0.7498,-0.7498,-0.7501,-0.7511,-0.7516,-0.7523,-0.7525,-0.7522,-0.7526,-0.7518,-0.7531,-0.7515,-0.7532,-0.7519,-0.7523,-0.7523,-0.7524,-0.7524,-0.7506,-0.7534,-0.758,-0.7585,-0.7526,-0.7525,-0.7525,0,-0.7502,-0.7514,-0.7528,-0.753,-0.753,-0.7537,-0.7537,-0.7538,-0.7543,-0.7548,-0.755,-0.7557,-0.756,-0.7566,-0.756,-0.7549,-0.7579,-0.7562,-0.7577,-0.7577,-0.7583,-0.7583,-0.7631,-0.7587,-0.7587,-0.7587,-0.7587,0,-0.7536,-0.755,-0.7542,-0.7551,-0.7566,-0.7558,-0.7574,-0.7573,-0.7574,-0.7583,-0.7573,-0.7581,-0.7573,-0.7582,-0.7577,-0.7593,-0.7594,-0.7593,-0.7591,-0.7594,-0.7594,-0.7596,-0.7593,-0.7588,-0.7588,-0.7587,-0.7587,0,-0.7571,-0.7567,-0.7582,-0.7581,-0.7581,-0.7592,-0.7592,-0.76,-0.7598,-0.7609,-0.7612,-0.7607,-0.7617,-0.7612,-0.7621,-0.7618,-0.7639,-0.7634,-0.7638,-0.7637,-0.7652,-0.7651,-0.7703,-0.7709,-0.7661,-0.7662,-0.7662,0,-0.7593,-0.7603,-0.7604,-0.7609,-0.761,-0.7619,-0.7623,-0.7616,-0.7622,-0.7625,-0.7634,-0.7642,-0.7649,-0.7664,-0.7663,-0.767,-0.7666,-0.7684,-0.7667,-0.7669,-0.7666,-0.7665,-0.7667,-0.7687,-0.7688,-0.7688,-0.7688,0,-0.7632,-0.7629,-0.7636,-0.7642,-0.7648,-0.7653,-0.7657,-0.7662,-0.7655,-0.7662,-0.7671,-0.7677,-0.7687,-0.7696,-0.7703,-0.7703,-0.7695,-0.7694,-0.7698,-0.77,-0.7701,-0.7701,-0.7647,-0.7692,-0.7692,-0.7692,-0.7692,-0.7691,-0.7661,-0.767,-0.7671,-0.768,-0.7682,-0.7686,-0.7695,-0.7694,-0.7701,-0.7709,-0.7705,-0.7716,-0.7719,-0.7728,-0.773,-0.7739,-0.7732,-0.7738,-0.7739,-0.774,-0.7742,-0.77,-0.774,-0.774,-0.774,-0.774,-0.774,0,-0.7699,-0.77,-0.7707,-0.7714,-0.772,-0.7712,-0.7717,-0.7723,-0.7733,-0.7737,-0.7744,-0.7755,-0.7764,-0.7763,-0.7772,-0.7779,-0.7776,-0.7782,-0.7781,-0.7781,-0.7748,-0.7744,-0.7785,-0.7785,-0.7785,-0.7785,-0.7785,-0.7785,-0.7719,-0.7734,-0.7732,-0.7749,-0.7749,-0.776,-0.7764,-0.7768,-0.7771,-0.7784,-0.7792,-0.7791,-0.7793,-0.7802,-0.781,-0.781,-0.7813,-0.7821,-0.7819,-0.7788,-0.7784,-0.7779,-0.7775,-0.7822,-0.7822,-0.7851,-0.7852,-0.7852]},{"header":{"parameterUnit":"m.s-1","parameterCategory":1,"la1":30.2991,"la2":30.254,"lo1":-89.0895,"lo2":-89.0444,"dy":0.0017,"dx":0.0017,"nx":28,"ny":28,"refTime":"2024-11-23T09:00:00:Z","depth":0,"parameterNumber":3,"parameterNumberName":"V-component_of_WINDS"},"data":[0,0,0,0,0,0,0,0,0,0,0,0,0,0,0,0,0,0,0,0,0,0,0,0,0,0,0,0,0,0,0,0,0,0,0,0,0,0,0,0,0,0,0,0,0,0,0,0,0,0,0,0,0,0,0,0,0,0,2.0331,2.033,0,2.0244,2.0243,2.0242,2.0212,2.0212,2.0212,2.0213,2.0117,2.0114,2.0111,0,0,0,0,0,0,0,0,0,0,0,0,0,2.0467,2.0464,2.0331,2.033,2.0329,2.0244,2.0242,2.0241,2.0211,2.0212,2.0212,2.0213,2.0118,2.0115,2.0111,0,0,0,0,0,0,0,0,0,0,0,0,0,2.0396,2.0464,2.0331,2.0304,2.0301,2.0244,2.0242,2.0241,2.0211,2.0212,2.0212,2.0213,2.0119,2.0115,2.0111,2.0073,0,0,2.0097,2.0096,0,0,0,0,0,0,0,0,2.04,2.0391,2.0309,2.0306,2.0302,2.0239,2.0255,2.0184,2.0211,2.0245,2.0213,2.0213,2.0157,2.0149,2.0132,2.0069,2.0064,2.0097,2.0094,2.0093,2.0091,0,0,0,0,0,0,0,2.0405,2.0395,2.0296,2.0308,2.0303,2.0294,2.0285,2.0242,2.0199,2.0242,2.024,2.023,2.0155,2.0136,2.0129,2.0063,2.0097,2.0093,2.0091,2.0089,1.9964,1.9963,0,0,0,0,0,0,2.0416,2.0399,2.0299,2.0294,2.0354,2.0291,2.0281,2.0259,2.0199,2.0191,2.023,2.0229,2.0143,2.0134,2.0126,2.0078,2.0093,2.0089,2.0086,1.9965,1.9964,1.9963,0,0,0,0,0,0,2.0419,2.0407,2.0302,2.0346,2.0332,2.0288,2.0264,2.0257,2.0238,2.019,2.0182,2.0219,2.0143,2.0132,2.0087,2.0074,2.0087,2.0083,1.9966,1.9965,1.9964,1.9982,0,0,0,0,0,0,2.0423,2.0408,2.0395,2.0346,2.033,2.0267,2.0263,2.0254,2.0231,2.0229,2.0177,2.0169,2.0143,2.0093,2.0082,2.0068,2.0079,1.9967,1.9965,1.9964,1.9982,1.9981,1.9981,0,0,0,0,0,2.0428,2.0402,2.0394,2.0382,2.0312,2.0266,2.0257,2.0229,2.023,2.0215,2.0185,2.0171,2.0077,2.0089,2.0076,2.0061,1.9967,1.9966,1.9964,1.9982,1.9981,1.9981,0,0,0,0,0,0,2.0448,2.0395,2.0386,2.0344,2.031,2.0261,2.0242,2.0229,2.0192,2.0192,2.0156,2.0145,2.0102,2.0077,2.0091,2.0021,2.0021,2.0017,2.0039,2.0038,2.0038,2.0044,2.0076,0,0,0,0,0,2.0449,2.0417,2.0372,2.0339,2.0323,2.0285,2.0264,2.0246,2.0208,2.0193,2.0159,2.0122,2.0084,2.006,2.0022,1.9978,1.9966,1.9961,1.996,1.996,1.9957,1.9931,1.9928,1.9958,1.9958,1.9958,0,0,2.0448,2.0415,2.0397,2.0342,2.0314,2.0281,2.0273,2.0239,2.0213,2.0187,2.0143,2.0117,2.0073,2.0028,2.0007,2.0005,1.9946,1.9958,1.9958,1.9955,1.9929,1.9926,1.9924,1.9957,1.9957,1.9957,0,0,2.0429,2.0402,2.0372,2.0344,2.0302,2.0277,2.027,2.0223,2.0205,2.0161,2.0141,2.0109,2.0045,2.0014,1.999,1.9961,1.9946,1.995,1.9946,1.9922,1.9919,1.9917,1.9906,1.9903,1.9946,1.9946,1.9946,0,2.0433,2.0384,2.0357,2.0324,2.03,2.0277,2.0246,2.0219,2.0166,2.015,2.0149,2.0069,2.0037,1.9985,1.9978,1.996,1.9949,1.9955,1.9922,1.992,1.9917,1.9906,1.9902,1.9947,1.9947,1.9947,1.9947,0,2.0391,2.0357,2.0338,2.029,2.0263,2.0231,2.0198,2.0174,2.0158,2.0133,2.0088,2.0049,2.0004,1.999,1.9973,1.9935,1.9936,1.993,1.9929,1.9915,1.9905,1.99,1.9948,1.9948,1.9948,1.9947,0,0,2.0382,2.0321,2.0314,2.0292,2.0244,2.0216,2.0183,2.014,2.0121,2.0085,2.0055,2.0001,1.9995,1.9968,1.9947,1.9926,1.9905,1.9922,1.992,1.992,1.986,1.9866,1.9861,1.9895,1.9894,1.9893,1.9864,0,2.0358,2.0299,2.0273,2.0225,2.0193,2.0171,2.0142,2.0108,2.0084,2.0052,2.0024,1.9987,1.9982,1.9965,1.9943,1.9912,1.9892,1.9914,1.9865,1.9864,1.9877,1.9856,1.9861,1.9835,1.986,1.9859,1.9858,0,2.0321,2.0287,2.0237,2.0193,2.0179,2.0153,2.0112,2.0082,2.0043,2.0027,1.9997,1.9978,1.994,1.9942,1.9889,1.9904,1.9882,1.9864,1.9862,1.9856,1.986,1.9849,1.9826,1.9822,1.9852,1.9852,1.9853,0,2.032,2.0262,2.0224,2.0206,2.0154,2.0136,2.0113,2.0075,2.0051,2.0015,1.9999,1.9958,1.9935,1.9903,1.9872,1.9877,1.9821,1.9821,1.9805,1.9806,1.9794,1.9795,1.9767,1.9781,1.9781,1.9781,1.9781,0,2.0295,2.0265,2.0223,2.02,2.0165,2.0135,2.0101,2.0076,2.0042,2.0013,1.999,1.9962,1.9924,1.989,1.9866,1.9825,1.9814,1.9799,1.9793,1.9801,1.9803,1.9786,1.9787,1.978,1.978,1.978,1.978,0,2.0288,2.0259,2.0216,2.0171,2.0159,2.0135,2.0096,2.0071,2.0047,2.0009,1.9998,1.9958,1.9918,1.9885,1.9831,1.9814,1.9772,1.9764,1.9786,1.9782,1.9768,1.977,1.9729,1.9721,1.974,1.974,1.974,0,2.0274,2.025,2.0203,2.0183,2.0161,2.0128,2.0104,2.0074,2.005,2.0004,1.9985,1.9944,1.9909,1.9845,1.981,1.9769,1.976,1.9748,1.9754,1.9763,1.976,1.9762,1.9759,1.9748,1.9748,1.9748,1.9748,0,2.0252,2.0239,2.0207,2.0169,2.0142,2.0111,2.0078,2.0062,2.0026,1.9999,1.9959,1.9933,1.9879,1.9838,1.9793,1.9767,1.9751,1.9747,1.9741,1.9749,1.9762,1.9755,1.9784,1.9748,1.9748,1.9748,1.9748,1.9748,2.024,2.0218,2.0183,2.0147,2.012,2.0091,2.0066,2.0039,2.0006,1.9961,1.9945,1.9904,1.9864,1.9803,1.9777,1.9743,1.9741,1.9732,1.973,1.9728,1.973,1.9768,1.9735,1.9735,1.9735,1.9734,1.9734,0,2.0217,2.0193,2.0161,2.0118,2.009,2.008,2.0043,2.002,1.9985,1.9951,1.9918,1.9871,1.9831,1.9794,1.9751,1.9731,1.9723,1.9721,1.9722,1.9716,1.9734,1.9743,1.9729,1.9729,1.9729,1.9729,1.9729,1.9729,2.0202,2.0164,2.0147,2.0096,2.0072,2.0033,2.0013,1.9985,1.9958,1.9908,1.9876,1.9853,1.9816,1.9772,1.9734,1.9724,1.9709,1.9709,1.9697,1.9714,1.9715,1.9716,1.9725,1.9706,1.9706,1.9682,1.9682,1.9682]}]]